Change the Weather History Date:

Thursday, January 16, 2014

  Actual Average Record
Temperature  
Mean Temperature 10 °F -  
Max Temperature 27 °F 5 °F 53 °F (2009)
Min Temperature -7 °F -2 °F -40 °F (2004)
Degree Days  
Heating Degree Days 55    
Moisture  
Dew Point 15 °F    
Average Humidity 84    
Maximum Humidity 92    
Minimum Humidity 65    
Precipitation  
Precipitation 0.01 in - - ()
Sea Level Pressure  
Sea Level Pressure 29.64 in    
Wind  
Wind Speed 12 mph (SW)    
Max Wind Speed 23 mph    
Max Gust Speed 31 mph    
Visibility 10 miles    
Events Snow    
Averages and records for this station are not official NWS values.
T = Trace of Precipitation, MM = Missing Value Source: NWS Daily Summary

Daily Weather History Graph

Daily Weather History Graph

Search for Another Location

Airport or City:

Trip Planner

Search our weather history database for the weather conditions in past years. The results will help you decide how hot, cold, wet, or windy it might be!

Date:

Astronomy

Jan. 16, 2014 Rise Set
Actual Time 10:05 AM AKST 3:40 PM AKST
Civil Twilight 8:59 AM AKST 4:46 PM AKST
Nautical Twilight 7:56 AM AKST 5:50 PM AKST
Astronomical Twilight 6:58 AM AKST 6:47 PM AKST
Moon 5:28 PM AKST (1/16) 9:22 AM AKST (1/16)
Length of Visible Light 7h 47m
Length of Day
5h 35m
Full, 100% of the Moon is Illuminated
Jan 16
Full
Jan 23
Last Quarter
Jan 30
New
Feb 6
First Quarter
Feb 14
Full

Hourly Weather History & Observations

Time (AKST) Temp. Windchill Dew Point Humidity Pressure Visibility Wind Dir Wind Speed Gust Speed Precip Events Conditions
12:53 AM 21.0 °F 4.6 °F 16.0 °F 81% 29.68 in 10.0 mi East 23.0 mph 31.1 mph N/A   Clear
1:53 AM 21.9 °F 8.7 °F 17.1 °F 82% 29.66 in 10.0 mi ESE 15.0 mph - N/A   Partly Cloudy
2:53 AM 21.9 °F 10.4 °F 17.1 °F 82% 29.63 in 10.0 mi ESE 11.5 mph - 0.01 in   Clear
3:53 AM 19.9 °F 5.2 °F 16.0 °F 85% 29.58 in 10.0 mi East 17.3 mph - N/A   Clear
4:53 AM 24.1 °F 11.0 °F 19.0 °F 81% 29.54 in 10.0 mi ESE 16.1 mph - N/A   Clear
5:53 AM 25.0 °F 10.6 °F 18.0 °F 75% 29.50 in 10.0 mi East 20.7 mph - N/A   Overcast
6:53 AM 26.1 °F 11.3 °F 19.0 °F 75% 29.48 in 10.0 mi ESE 23.0 mph - N/A   Overcast
7:53 AM 27.0 °F 13.5 °F 19.0 °F 72% 29.45 in 10.0 mi ESE 19.6 mph - N/A   Overcast
8:53 AM 27.0 °F 12.8 °F 19.9 °F 75% 29.45 in 10.0 mi ESE 21.9 mph - N/A   Overcast
9:53 AM 27.0 °F 21.6 °F 21.9 °F 81% 29.48 in 10.0 mi Variable 4.6 mph - 0.01 in   Overcast
10:53 AM 24.1 °F 15.2 °F 19.9 °F 84% 29.48 in 6.0 mi West 8.1 mph - 0.00 in Snow Light Snow
11:33 AM 21.2 °F 13.6 °F 17.6 °F 86% 29.37 in 10.0 mi West 5.8 mph - 0.00 in Snow Light Snow
11:53 AM 21.9 °F 12.5 °F 18.0 °F 85% 29.49 in 9.0 mi West 8.1 mph - 0.00 in   Overcast
12:53 PM 21.9 °F 13.4 °F 19.0 °F 89% 29.54 in 10.0 mi West 6.9 mph - N/A   Overcast
1:53 PM 21.9 °F 14.5 °F 18.0 °F 85% 29.56 in 2.5 mi NW 5.8 mph - 0.00 in Snow Light Snow
2:03 PM 21.2 °F 10.9 °F 17.6 °F 86% 29.47 in 4.0 mi NW 9.2 mph - 0.00 in Snow Light Snow
2:53 PM 19.9 °F 14.9 °F 16.0 °F 85% 29.62 in 10.0 mi NW 3.5 mph - 0.00 in   Mostly Cloudy
3:53 PM 18.0 °F 12.7 °F 14.0 °F 84% 29.68 in 10.0 mi West 3.5 mph - N/A   Mostly Cloudy
4:53 PM 16.0 °F - 12.0 °F 84% 29.73 in 10.0 mi Calm Calm - N/A   Mostly Cloudy
5:53 PM 14.0 °F - 10.9 °F 88% 29.77 in 10.0 mi Calm Calm - N/A   Scattered Clouds
6:53 PM 12.9 °F - 10.0 °F 88% 29.80 in 10.0 mi Calm Calm - N/A   Scattered Clouds
7:53 PM 12.0 °F 2.7 °F 10.0 °F 92% 29.83 in 10.0 mi East 5.8 mph - N/A   Mostly Cloudy
8:53 PM 12.9 °F - 10.9 °F 92% 29.84 in 10.0 mi Calm Calm - N/A   Overcast
9:01 PM 12.2 °F - 10.4 °F 92% 29.74 in 10.0 mi Calm Calm - N/A   Overcast
9:38 PM 12.2 °F 6.1 °F 10.4 °F 92% 29.74 in 10.0 mi North 3.5 mph - N/A   Overcast
9:53 PM 12.9 °F 5.2 °F 10.0 °F 88% 29.85 in 10.0 mi NNW 4.6 mph - N/A   Overcast
10:50 PM 15.8 °F 10.2 °F 12.2 °F 86% 29.74 in 10.0 mi WSW 3.5 mph - N/A   Scattered Clouds
10:53 PM 14.0 °F 8.2 °F 10.9 °F 88% 29.85 in 10.0 mi WSW 3.5 mph - N/A   Scattered Clouds
11:17 PM 12.2 °F - 10.4 °F 92% 29.75 in 10.0 mi Calm Calm - N/A   Mostly Cloudy
11:53 PM 14.0 °F 8.2 °F 10.9 °F 88% 29.84 in 10.0 mi SW 3.5 mph - N/A   Overcast